Погода в Урунхайке

Казахстан     48°47′09″N   86°01′37″E
темп.,
°C
ветер,
м/с
пор.,
м/с
влажн.,
%
обл.,
%
осадки,
мм/ч
давл.,
гПа
погр.,
м
1 августа, вс
вс100:00+7св33832 0.3 101637
03:00+7св33823 0.0 101529
06:00+8св33830 0.0 101555
09:00+14с22590 0.0 1012725
12:00+16з23478 0.0 10111157
15:00+18з13425 0.0 1010959
18:00+18с23510 0.0 1008249
21:00+10ссв33670 0.0 101125
2 августа, пн
пн200:00+9св33670 0.0 101121
03:00+8св33700 0.0 101122
06:00+10св33705 0.0 101240
09:00+17св10503 0.0 1010672
12:00+18зюз22433 0.0 1010981
15:00+19юз144377 0.0 1009856
18:00+19св21535 0.0 1008237
21:00+11св44690 0.0 101133
3 августа, вт
вт300:00+11св33600 0.0 101121
03:00+10всв33590 0.0 101117
06:00+11всв22600 0.0 101118
09:00+18юз22470 0.0 1010637
12:00+19з24410 0.0 1009905
15:00+21зсз244115 0.0 10081144
18:00+20с12560 0.0 1007425
21:00+12ссв44732 0.0 101133
4 августа, ср
ср400:00+11св337422 0.0 101121
03:00+10св337429 0.0 101127
06:00+11св33722 0.0 101133
09:00+17зюз244827 0.0 1010870
12:00+18зюз374492 0.0 10081491
15:00+19сз574529 0.1 10071435
18:00+18с34522 0.1 1006310
21:00+9с33700 0.0 101126
5 августа, чт
чт500:00+7ссв33760 0.0 101134
03:00+6ссв33770 0.0 101136
06:00+7св23720 0.0 101047
09:00+14з11500 0.0 1008879
12:00+15з234211 0.0 10081215
15:00+17сз33416 0.1 10061769
18:00+16с335131 0.1 1006733
21:00+8ссв33730 0.0 101027